FW8073 Weather Reports


time (UTC)temp
C
wind
direction
speed
KPH
gust
KPH
rain 1hr
cm
rain 24hr
cm
rain mn
cm
humidity
%
barometer
mb
20260504215107 22 247 25.7 32.2 0.00 0.00 0.00 55 999.4
20260504214603 22 240 14.5 20.9 0.00 0.00 0.00 58 999.5
20260504214059 22 239 16.1 20.9 0.00 0.00 0.00 59 999.9
20260504213556 22 216 20.9 43.5 0.00 0.00 0.00 57 999.6
20260504213053 22 228 32.2 41.8 0.00 0.00 0.00 56 1000.1
20260504212549 23 244 25.7 41.8 0.00 0.00 0.00 56 999.9
20260504212046 23 223 24.1 32.2 0.00 0.00 0.00 57 1000.1
20260504211543 23 255 20.9 29.0 0.00 0.00 0.00 54 1000.2
20260504211040 23 251 16.1 25.7 0.00 0.00 0.00 55 1000.0
20260504210537 23 220 20.9 32.2 0.00 0.00 0.00 53 1000.3
20260504210033 23 256 32.2 38.6 0.00 0.00 0.00 55 1000.4
20260504205532 23 229 16.1 24.1 0.00 0.00 0.00 55 1000.5
20260504205029 23 222 22.5 24.1 0.00 0.00 0.00 57 1000.4
20260504204527 23 232 17.7 25.7 0.00 0.00 0.00 55 1000.6
20260504204026 23 271 32.2 49.9 0.00 0.00 0.00 57 1000.4
20260504203523 23 251 16.1 20.9 0.00 0.00 0.00 56 1000.6
20260504203021 23 225 17.7 38.6 0.00 0.00 0.00 57 1000.9
20260504202516 23 249 22.5 32.2 0.00 0.00 0.00 57 1000.9
20260504202013 23 230 19.3 38.6 0.00 0.00 0.00 56 1001.0
20260504201510 23 226 14.5 25.7 0.00 0.00 0.00 57 1001.0
20260504201008 23 244 14.5 29.0 0.00 0.00 0.00 57 1001.4
20260504200504 23 227 27.4 32.2 0.00 0.00 0.00 59 1001.2
20260504200001 22 232 20.9 24.1 0.00 0.00 0.00 57 1001.2
20260504195457 22 228 29.0 43.5 0.00 0.00 0.00 61 1001.6
20260504194954 23 238 17.7 24.1 0.00 0.00 0.00 58 1001.7
20260504194450 22 211 16.1 24.1 0.00 0.00 0.00 58 1001.6
20260504193945 22 251 12.9 24.1 0.00 0.00 0.00 58 1001.6
20260504193443 22 227 19.3 29.0 0.00 0.00 0.00 58 1001.6
20260504192942 22 229 12.9 20.9 0.00 0.00 0.00 57 1001.6
20260504192438 22 225 20.9 32.2 0.00 0.00 0.00 58 1001.8
20260504191937 23 249 17.7 25.7 0.00 0.00 0.00 55 1001.7
20260504191435 23 218 17.7 25.7 0.00 0.00 0.00 55 1001.7
20260504190930 23 267 24.1 29.0 0.00 0.00 0.00 52 1001.8
20260504190426 23 267 24.1 29.0 0.00 0.00 0.00 52 1001.9
20260504185923 23 267 24.1 29.0 0.00 0.00 0.00 52 1001.9
20260504185420 23 267 24.1 29.0 0.00 0.00 0.00 52 1001.8
20260504184916 23 267 24.1 29.0 0.00 0.00 0.00 52 1001.9
20260504184412 23 267 24.1 29.0 0.00 0.00 0.00 52 1002.0
20260504183908 23 267 24.1 29.0 0.00 0.00 0.00 52 1002.0
20260504183405 22 204 14.5 17.7 0.00 0.00 0.00 48 1002.1
20260504182903 22 204 14.5 17.7 0.00 0.00 0.00 48 1002.1
20260504182400 22 204 14.5 17.7 0.00 0.00 0.00 48 1002.1
20260504181856 22 208 11.3 17.7 0.00 0.00 0.00 48 1002.2
20260504181354 22 257 25.7 29.0 0.00 0.00 0.00 46 1002.4
20260504180853 22 261 38.6 41.8 0.00 0.00 0.00 44 1002.3
20260504180351 22 234 29.0 38.6 0.00 0.00 0.00 45 1002.4
20260504175849 22 234 29.0 38.6 0.00 0.00 0.00 45 1002.4
20260504175345 22 236 38.6 41.8 0.00 0.00 0.00 43 1002.5
20260504174843 22 255 12.9 17.7 0.00 0.00 0.00 44 1002.8
20260504174341 22 255 19.3 20.9 0.00 0.00 0.00 44 1002.9
20260504173837 22 258 14.5 17.7 0.00 0.00 0.00 44 1002.9
20260504173334 22 249 19.3 24.1 0.00 0.00 0.00 48 1002.9
20260504172831 22 244 29.0 35.4 0.00 0.00 0.00 49 1003.1
20260504172328 22 241 17.7 17.7 0.00 0.00 0.00 51 1003.0
20260504171824 22 260 20.9 24.1 0.00 0.00 0.00 51 1003.1
20260504171321 21 246 12.9 17.7 0.00 0.00 0.00 48 1003.4
20260504170818 21 246 12.9 17.7 0.00 0.00 0.00 48 1003.2
20260504170315 21 164 17.7 25.7 0.00 0.00 0.00 47 1003.4
20260504160233 20 177 12.9 20.9 0.00 0.00 0.00 58 1004.1
20260504150659 18 230 14.5 17.7 0.00 0.00 0.00 64 1004.7
20260504150155 18 254 14.5 17.7 0.00 0.00 0.00 65 1004.6
20260504141124 17 233 11.3 14.5 0.00 0.00 0.00 69 1004.8
20260504140621 17 255 11.3 24.1 0.00 0.00 0.00 71 1004.6
20260504140117 16 243 9.7 14.5 0.00 0.00 0.00 71 1004.8
20260504130545 13 263 17.7 20.9 0.00 0.00 0.00 76 1005.4
20260504110433 7 224 3.2 6.4 0.00 0.00 0.00 93 1005.3
20260504100349 7 228 1.6 3.2 0.00 0.00 0.00 94 1005.1
20260504081743 7 233 1.6 6.4 0.00 0.00 0.00 91 1005.7
20260504081239 7 232 3.2 8.0 0.00 0.00 0.00 91 1006.0
20260504080735 7 243 1.6 6.4 0.00 0.00 0.00 91 1005.9
20260504080232 7 237 3.2 3.2 0.00 0.00 0.00 91 1006.0
20260504070200 8 203 4.8 8.0 0.00 0.00 0.00 88 1007.2
20260504060120 8 219 3.2 8.0 0.00 0.00 0.00 86 1007.7
20260504050548 8 219 6.4 11.3 0.00 0.00 0.00 85 1008.1
20260504045542 8 240 9.7 11.3 0.00 0.00 0.00 85 1008.2
20260504045037 8 208 6.4 11.3 0.00 0.00 0.00 84 1008.2
20260504044535 8 199 11.3 11.3 0.00 0.00 0.00 85 1008.1
20260504044032 8 185 6.4 11.3 0.00 0.00 0.00 84 1008.5
20260504043529 8 193 6.4 14.5 0.00 0.00 0.00 84 1008.4
20260504043026 8 211 6.4 8.0 0.00 0.00 0.00 84 1008.4
20260504042523 8 215 6.4 8.0 0.00 0.00 0.00 84 1008.2
20260504042020 8 210 4.8 8.0 0.00 0.00 0.00 84 1008.4
20260504041516 8 173 12.9 17.7 0.00 0.00 0.00 84 1008.5
20260504041012 8 232 6.4 8.0 0.00 0.00 0.00 83 1008.4
20260504040510 8 196 8.0 11.3 0.00 0.00 0.00 83 1008.4
20260504040006 8 224 6.4 8.0 0.00 0.00 0.00 83 1008.4
20260504035503 8 172 11.3 17.7 0.00 0.00 0.00 83 1008.6
20260504034959 8 209 11.3 14.5 0.00 0.00 0.00 82 1008.5
20260504034457 8 191 9.7 14.5 0.00 0.00 0.00 82 1008.6
20260504033954 8 223 11.3 11.3 0.00 0.00 0.00 82 1008.9
20260504033452 8 216 6.4 14.5 0.00 0.00 0.00 82 1008.9
20260504032949 8 190 6.4 11.3 0.00 0.00 0.00 82 1008.7
20260504032446 8 168 9.7 14.5 0.00 0.00 0.00 82 1009.1
20260504031942 8 196 8.0 11.3 0.00 0.00 0.00 81 1009.0
20260504031439 9 201 4.8 11.3 0.00 0.00 0.00 81 1009.0
20260504030936 9 235 8.0 14.5 0.00 0.00 0.00 81 1009.0
20260504030433 9 181 9.7 11.3 0.00 0.00 0.00 81 1009.1
20260504025929 9 192 4.8 11.3 0.00 0.00 0.00 81 1009.1
20260504025426 9 198 6.4 11.3 0.00 0.00 0.00 80 1008.9
20260504024923 9 216 6.4 20.9 0.00 0.00 0.00 80 1009.1
20260504024420 9 245 9.7 14.5 0.00 0.00 0.00 80 1009.2
20260504023917 9 227 4.8 8.0 0.00 0.00 0.00 80 1009.1
20260504023413 9 197 8.0 8.0 0.00 0.00 0.00 80 1009.2
20260504022909 9 184 8.0 11.3 0.00 0.00 0.00 80 1009.2
20260504022406 9 184 4.8 11.3 0.00 0.00 0.00 81 1009.2
20260504021903 9 153 16.1 20.9 0.00 0.00 0.00 80 1009.3
20260504021400 9 200 8.0 8.0 0.00 0.00 0.00 80 1009.2
20260504020857 9 179 9.7 14.5 0.00 0.00 0.00 81 1009.5
20260504020353 9 193 8.0 11.3 0.00 0.00 0.00 81 1009.4
20260504015849 9 181 11.3 20.9 0.00 0.00 0.00 81 1009.5
20260504015346 9 211 3.2 17.7 0.00 0.00 0.00 81 1009.3
20260504014842 9 192 4.8 14.5 0.00 0.00 0.00 81 1009.3
20260504014338 9 183 4.8 11.3 0.00 0.00 0.00 81 1009.4
20260504013836 9 195 6.4 11.3 0.00 0.00 0.00 80 1009.3
20260504013333 10 184 8.0 8.0 0.00 0.00 0.00 80 1009.5
20260504012830 10 205 6.4 8.0 0.00 0.00 0.00 80 1009.4
20260504012328 10 167 6.4 11.3 0.00 0.00 0.00 79 1009.5
20260504011825 10 184 8.0 11.3 0.00 0.00 0.00 80 1009.4
20260504011321 10 220 4.8 20.9 0.00 0.00 0.00 79 1009.5
20260504010817 10 195 4.8 14.5 0.00 0.00 0.00 79 1009.5
20260504010313 10 173 9.7 14.5 0.00 0.00 0.00 79 1009.5
20260504005810 10 172 4.8 11.3 0.00 0.00 0.00 79 1009.4
20260504005307 10 224 8.0 11.3 0.00 0.00 0.00 78 1009.4
20260504004804 10 220 11.3 17.7 0.00 0.00 0.00 79 1009.7
20260504004302 10 203 8.0 11.3 0.00 0.00 0.00 78 1009.6
20260504003758 10 224 11.3 11.3 0.00 0.00 0.00 79 1009.7
20260504003255 10 201 6.4 14.5 0.00 0.00 0.00 78 1009.7
20260504002751 10 201 3.2 11.3 0.00 0.00 0.00 78 1009.5
20260504002249 10 225 6.4 11.3 0.00 0.00 0.00 79 1009.7
20260504001746 10 172 8.0 11.3 0.00 0.00 0.00 77 1009.6
20260504001243 10 200 6.4 11.3 0.00 0.00 0.00 77 1009.5
20260504000740 10 193 9.7 11.3 0.00 0.00 0.00 77 1009.6
20260504000237 11 225 6.4 11.3 0.00 0.00 0.00 78 1010.0
20260503235735 11 197 9.7 11.3 0.00 0.00 0.00 77 1009.7
20260503235232 11 163 9.7 17.7 0.00 0.00 0.00 77 1009.9
20260503234730 11 203 6.4 24.1 0.00 0.00 0.00 77 1009.9
20260503234227 11 215 11.3 20.9 0.00 0.00 0.00 76 1010.0
20260503233725 11 183 8.0 11.3 0.00 0.00 0.00 77 1009.8
20260503233220 11 186 4.8 8.0 0.00 0.00 0.00 77 1010.0
20260503232717 11 233 4.8 11.3 0.00 0.00 0.00 77 1010.3
20260503232214 11 218 6.4 17.7 0.00 0.00 0.00 76 1009.9
20260503231713 11 207 8.0 14.5 0.00 0.00 0.00 76 1010.2
20260503231209 11 226 9.7 11.3 0.00 0.00 0.00 76 1010.3
20260503230705 11 198 6.4 8.0 0.00 0.00 0.00 76 1010.6
20260503230202 11 229 14.5 29.0 0.00 0.00 0.00 76 1010.3
20260503225659 11 219 6.4 8.0 0.00 0.00 0.00 76 1010.3
20260503225154 11 231 17.7 17.7 0.00 0.00 0.00 76 1010.7
20260503224651 11 247 6.4 11.3 0.00 0.00 0.00 76 1010.8
20260503224149 11 192 6.4 14.5 0.00 0.00 0.00 76 1010.9
20260503223647 11 244 12.9 14.5 0.00 0.00 0.00 74 1010.7
20260503223143 11 232 24.1 29.0 0.00 0.00 0.00 72 1011.0
20260503222640 11 217 6.4 14.5 0.00 0.00 0.00 73 1011.0
20260503222138 11 245 17.7 29.0 0.00 0.00 0.00 72 1011.0
20260503221636 11 241 17.7 25.7 0.00 0.00 0.00 73 1011.1
20260503221133 11 259 17.7 29.0 0.00 0.00 0.00 73 1011.2
20260503220630 11 241 16.1 20.9 0.00 0.00 0.00 74 1011.0
20260503220126 11 235 33.8 41.8 0.00 0.00 0.00 71 1011.2
20260503215624 11 223 19.3 35.4 0.00 0.00 0.00 72 1011.0